Погода в Добром

Россия / Липецкая область     52°51′52″N   39°48′34″E
темп.,
°C
ветер,
м/с
пор.,
м/с
влажн.,
%
обл.,
%
осадки,
мм/ч
давл.,
гПа
погр.,
м
6 мая, чт
чт600:00+9ююз411795 0.0 1013218
03:00+10ююз41272100 0.0 1013282
06:00+9ю4127588 0.0 1013304
09:00+13ююз61260100 0.0 1013601
12:00+16ююз71150100 0.0 10121846
15:00+17ююз71250100 0.0 10111883
18:00+16ююз6105696 0.0 10101108
21:00+13ююз4968100 0.1 1011329
7 мая, пт
пт700:00+11з3583100 0.1 1011272
03:00+9зсз4890100 0.9 1012533
06:00+8в1188100 3.4 1013136
09:00+12зсз347085 3.6 10141103
12:00+14сз44421 0.1 10151720
15:00+15сз22375 0.1 10161725
18:00+15з11395 0.0 10161639
21:00+11юв2350100 0.0 101629
8 мая, сб
сб800:00+8юв3761100 0.0 1016120
03:00+8ююв51379100 0.0 1015332
06:00+9ююв61478100 0.0 1013429
09:00+10ююв71584100 0.9 1012646
12:00+12ю61487100 1.3 1009822
15:00+14ю61276100 1.8 1007825
18:00+12ююз81593100 3.1 1007903
21:00+9з51193100 5.6 1009689
9 мая, вс
вс900:00+7з61085100 1.1 1011712
03:00+5з4985100 1.2 1013786
06:00+6зсз4887100 0.0 1015712
09:00+7сз4673100 0.0 1015917
12:00+8ссз5666100 0.1 10161230
15:00+10с5661100 0.3 10181477
18:00+10ссв4863100 0.1 10191255
21:00+7с36787 0.1 1021167
10 мая, пн
пн1000:00+5ссз410847 0.0 1021249
03:00+5с614827 0.0 1023408
06:00+5с6157888 0.0 1025595
09:00+10ссв91555100 0.0 10251246
12:00+13ссв91349100 0.0 10251447
15:00+11ссв81460100 0.0 10241052
18:00+9св81568100 0.1 1025764
21:00+9св61470100 0.3 1025480